Location: Unspecified
(0.0000°N, 0.0000°E)
Time: 20:37:07
(UTC+00:00)

USA 403 - Visible Passes

Search period start: 09 June 2026 00:00
Search period end: 19 June 2026 00:00
Orbit: 574 x 580 km, 70.0° (Epoch: 13 November)

Date Brightness Start Highest point End Pass type
(mag) Time Alt. Az. Time Alt. Az. Time Alt. Az.
10 Jun ? 20:18:07 10° N 20:18:35 13° N 20:18:35 13° N visible
11 Jun ? 20:21:59 10° NNW 20:23:10 18° NNW 20:23:10 18° NNW visible
12 Jun ? 20:26:12 10° NW 20:27:49 21° NW 20:27:49 21° NW visible
13 Jun ? 18:53:40 10° NE 18:55:53 14° ENE 18:56:12 14° ENE visible
13 Jun ? 20:30:48 10° WNW 20:32:31 18° WNW 20:32:31 18° WNW visible
14 Jun ? 18:56:21 10° NNE 18:59:47 24° ENE 19:00:59 21° E visible
14 Jun ? 20:36:21 10° W 20:37:18 12° W 20:37:18 12° W visible
15 Jun ? 18:59:42 10° N 19:03:42 44° ENE 19:05:49 24° SE visible
16 Jun ? 19:03:24 10° NNW 19:07:36 84° ENE 19:10:41 18° SSE visible
17 Jun ? 19:07:26 10° NNW 19:11:31 51° WSW 19:15:36 10° S visible
18 Jun ? 19:11:49 10° NW 19:15:26 28° WSW 19:19:04 10° SSW visible
